CES5226 ZLXY-ZSAM

Flight info

Callsign CES5226
Flight time 2h 13m
Altitude 31100
Route PUMUR W286 SUDGO H132 P234 H36 SNF W269 OLPOV B213 WHA R343 SAGUD W50 XSH W105 PEXEK H18 QO
Aircraft A20N/M-SDE2E3FGILRWXY/LB2

Departure

Time 2026-04-26 13:41
Airport Xi'an Xianyang International Airport (ZLXY)

Arrival

Time 2026-04-26 15:55
Airport Xiamen Gaoqi International Airport (ZSAM)
Time Latitude Longitude Altitude Speed Heading
2026-04-26 13:29 34.44078 108.77214 1574 ft 0 kts 48°
2026-04-26 13:32 34.44079 108.77215 1574 ft 0 kts 48°
2026-04-26 13:32 34.44088 108.77228 1574 ft 3 kts 56°
2026-04-26 13:33 34.44096 108.77275 1574 ft 7 kts 100°
2026-04-26 13:33 34.44048 108.77307 1574 ft 11 kts 207°
2026-04-26 13:33 34.43985 108.77232 1574 ft 13 kts 229°
2026-04-26 13:33 34.43921 108.77144 1574 ft 14 kts 229°
2026-04-26 13:34 34.43855 108.77052 1574 ft 14 kts 229°
2026-04-26 13:34 34.43787 108.76957 1574 ft 15 kts 230°
2026-04-26 13:34 34.43711 108.76853 1574 ft 16 kts 229°
2026-04-26 13:34 34.43659 108.76781 1574 ft 17 kts 229°
2026-04-26 13:35 34.43554 108.76636 1574 ft 17 kts 228°
2026-04-26 13:35 34.43476 108.76529 1574 ft 17 kts 229°
2026-04-26 13:35 34.43396 108.76419 1574 ft 17 kts 229°
2026-04-26 13:35 34.43318 108.76311 1574 ft 17 kts 229°
2026-04-26 13:36 34.43240 108.76203 1574 ft 17 kts 229°
2026-04-26 13:36 34.43161 108.76093 1574 ft 17 kts 229°
2026-04-26 13:36 34.43082 108.75984 1574 ft 17 kts 229°
2026-04-26 13:36 34.43006 108.75877 1574 ft 17 kts 230°
2026-04-26 13:37 34.42927 108.75770 1574 ft 17 kts 229°
2026-04-26 13:37 34.42845 108.75655 1574 ft 18 kts 230°
2026-04-26 13:37 34.42758 108.75538 1574 ft 18 kts 229°
2026-04-26 13:37 34.42672 108.75420 1574 ft 18 kts 228°
2026-04-26 13:38 34.42665 108.75411 1574 ft 18 kts 228°
2026-04-26 13:38 34.42581 108.75294 1574 ft 18 kts 229°
2026-04-26 13:38 34.42497 108.75178 1574 ft 18 kts 229°
2026-04-26 13:38 34.42415 108.75065 1574 ft 18 kts 229°
2026-04-26 13:39 34.42333 108.74952 1574 ft 12 kts 228°
2026-04-26 13:39 34.42269 108.74946 1574 ft 10 kts 142°
2026-04-26 13:39 34.42210 108.75010 1574 ft 11 kts 137°
2026-04-26 13:39 34.42149 108.75079 1574 ft 12 kts 133°
2026-04-26 13:40 34.42152 108.75173 1574 ft 12 kts 53°
2026-04-26 13:40 34.42222 108.75274 1574 ft 30 kts 50°
2026-04-26 13:40 34.42518 108.75685 1574 ft 98 kts 49°
2026-04-26 13:40 34.43100 108.76486 1574 ft 153 kts 48°
2026-04-26 13:41 34.43856 108.77544 1931 ft 168 kts 50°
2026-04-26 13:41 34.44522 108.78706 2489 ft 173 kts 56°
2026-04-26 13:41 34.45268 108.79897 2932 ft 186 kts 51°
2026-04-26 13:41 34.46122 108.81177 3302 ft 203 kts 51°
2026-04-26 13:42 34.47066 108.82542 3616 ft 222 kts 50°
2026-04-26 13:42 34.48122 108.84032 4051 ft 237 kts 50°
2026-04-26 13:42 34.49178 108.85508 4876 ft 235 kts 49°
2026-04-26 13:42 34.50239 108.86984 5663 ft 234 kts 49°
2026-04-26 13:43 34.51277 108.88423 6442 ft 233 kts 48°
2026-04-26 13:43 34.52337 108.89888 7167 ft 235 kts 48°
2026-04-26 13:43 34.53411 108.91371 7869 ft 238 kts 48°
2026-04-26 13:43 34.54500 108.92878 8602 ft 240 kts 48°
2026-04-26 13:44 34.55598 108.94401 9347 ft 242 kts 48°
2026-04-26 13:44 34.56699 108.95929 10057 ft 245 kts 48°
2026-04-26 13:44 34.57824 108.97492 10743 ft 249 kts 47°
2026-04-26 13:44 34.58934 108.99116 11433 ft 253 kts 57°
2026-04-26 13:45 34.59531 109.01139 12062 ft 262 kts 83°
2026-04-26 13:45 34.59322 109.03330 12677 ft 271 kts 109°
2026-04-26 13:45 34.58295 109.05294 13077 ft 289 kts 136°
2026-04-26 13:45 34.56533 109.06630 13408 ft 307 kts 154°
2026-04-26 13:46 34.54532 109.07767 13728 ft 325 kts 154°
2026-04-26 13:46 34.52449 109.08991 14030 ft 342 kts 153°
2026-04-26 13:46 34.50262 109.10315 14322 ft 359 kts 153°
2026-04-26 13:46 34.47998 109.11695 14617 ft 374 kts 153°
2026-04-26 13:47 34.45654 109.13131 15105 ft 383 kts 154°
2026-04-26 13:47 34.43253 109.14601 15750 ft 386 kts 154°
2026-04-26 13:47 34.40878 109.16057 16354 ft 390 kts 154°
2026-04-26 13:47 34.38432 109.17552 16964 ft 393 kts 155°
2026-04-26 13:48 34.35983 109.19048 17570 ft 396 kts 155°
2026-04-26 13:48 34.33517 109.20551 18150 ft 400 kts 155°
2026-04-26 13:48 34.31035 109.22065 18695 ft 404 kts 156°
2026-04-26 13:48 34.28493 109.23611 19233 ft 409 kts 155°
2026-04-26 13:49 34.25941 109.25167 19746 ft 413 kts 155°
2026-04-26 13:49 34.23387 109.26779 20258 ft 418 kts 154°
2026-04-26 13:49 34.20808 109.28429 20733 ft 423 kts 154°
2026-04-26 13:49 34.18188 109.30106 21203 ft 428 kts 154°
2026-04-26 13:50 34.15571 109.31775 21676 ft 432 kts 155°
2026-04-26 13:50 34.12893 109.33478 22177 ft 435 kts 154°
2026-04-26 13:50 34.10169 109.35220 22651 ft 439 kts 154°
2026-04-26 13:50 34.07497 109.36958 23092 ft 444 kts 154°
2026-04-26 13:51 34.04760 109.38748 23557 ft 447 kts 154°
2026-04-26 13:51 34.02023 109.40539 24011 ft 451 kts 154°
2026-04-26 13:51 33.99259 109.42342 24454 ft 453 kts 154°
2026-04-26 13:51 33.96446 109.44174 24937 ft 455 kts 154°
2026-04-26 13:52 33.93674 109.45978 25352 ft 458 kts 154°
2026-04-26 13:52 33.90871 109.47802 25730 ft 462 kts 154°
2026-04-26 13:52 33.88023 109.49651 26102 ft 465 kts 154°
2026-04-26 13:52 33.85156 109.51510 26484 ft 468 kts 154°
2026-04-26 13:53 33.82291 109.53366 26833 ft 471 kts 155°
2026-04-26 13:53 33.79393 109.55240 27182 ft 473 kts 155°
2026-04-26 13:53 33.76370 109.56747 27552 ft 469 kts 167°
2026-04-26 13:53 33.73228 109.57510 28009 ft 461 kts 179°
2026-04-26 13:54 33.70060 109.57610 28527 ft 454 kts 186°
2026-04-26 13:54 33.66923 109.57485 29025 ft 451 kts 187°
2026-04-26 13:54 33.63769 109.57338 29497 ft 450 kts 187°
2026-04-26 13:55 33.57503 109.57094 30320 ft 451 kts 187°
2026-04-26 13:55 33.55415 109.57021 30549 ft 452 kts 187°
2026-04-26 13:55 33.48058 109.56773 31066 ft 455 kts 187°
2026-04-26 13:56 33.44908 109.56669 31074 ft 455 kts 187°
2026-04-26 13:56 33.38547 109.56463 31089 ft 455 kts 187°
2026-04-26 13:57 33.32250 109.56256 31113 ft 455 kts 187°
2026-04-26 13:57 33.25936 109.56050 31135 ft 454 kts 187°
2026-04-26 13:58 33.19616 109.55844 31137 ft 453 kts 187°
2026-04-26 13:58 33.13337 109.55637 31118 ft 452 kts 187°
2026-04-26 13:59 33.07025 109.55432 31093 ft 454 kts 187°
2026-04-26 13:59 33.00693 109.55228 31065 ft 453 kts 187°
2026-04-26 14:00 32.88073 109.54815 31060 ft 453 kts 186°
2026-04-26 14:01 32.81804 109.54613 31067 ft 452 kts 186°
2026-04-26 14:01 32.75527 109.54410 31070 ft 452 kts 186°
2026-04-26 14:02 32.69231 109.54207 31074 ft 452 kts 186°
2026-04-26 14:02 32.62941 109.54004 31095 ft 452 kts 186°
2026-04-26 14:03 32.56671 109.53801 31115 ft 451 kts 186°
2026-04-26 14:03 32.50370 109.53599 31130 ft 451 kts 186°
2026-04-26 14:04 32.44095 109.53397 31141 ft 450 kts 186°
2026-04-26 14:04 32.37879 109.53198 31137 ft 450 kts 186°
2026-04-26 14:05 32.31615 109.52995 31133 ft 451 kts 186°
2026-04-26 14:05 32.25311 109.52794 31121 ft 450 kts 186°
2026-04-26 14:06 32.19067 109.52594 31131 ft 450 kts 186°
2026-04-26 14:06 32.12817 109.52395 31137 ft 450 kts 186°
2026-04-26 14:07 32.06542 109.52196 31160 ft 449 kts 186°
2026-04-26 14:07 32.00283 109.51994 31168 ft 450 kts 186°
2026-04-26 14:08 31.94033 109.51846 31182 ft 451 kts 184°
2026-04-26 14:08 31.87761 109.52353 31175 ft 455 kts 176°
2026-04-26 14:09 31.81518 109.53663 31173 ft 457 kts 172°
2026-04-26 14:09 31.75299 109.55151 31165 ft 457 kts 172°
2026-04-26 14:10 31.69085 109.56634 31159 ft 455 kts 172°
2026-04-26 14:10 31.62858 109.58113 31159 ft 456 kts 172°
2026-04-26 14:11 31.53532 109.60321 31163 ft 456 kts 172°
2026-04-26 14:11 31.47311 109.61781 31155 ft 456 kts 172°
2026-04-26 14:12 31.41096 109.63238 31136 ft 455 kts 172°
2026-04-26 14:12 31.34891 109.64691 31115 ft 454 kts 172°
2026-04-26 14:13 31.25569 109.66872 31083 ft 455 kts 172°
2026-04-26 14:14 31.19352 109.68322 31071 ft 455 kts 172°
2026-04-26 14:14 31.13235 109.70343 31066 ft 462 kts 158°
2026-04-26 14:14 31.10451 109.72259 31064 ft 467 kts 146°
2026-04-26 14:15 31.08030 109.74734 31064 ft 470 kts 135°
2026-04-26 14:15 31.06020 109.77735 31065 ft 473 kts 124°
2026-04-26 14:15 31.04506 109.81194 31066 ft 477 kts 112°
2026-04-26 14:16 31.02405 109.88496 31070 ft 477 kts 108°
2026-04-26 14:16 31.00371 109.95789 31076 ft 476 kts 109°
2026-04-26 14:17 30.98274 110.03113 31078 ft 476 kts 109°
2026-04-26 14:17 30.96204 110.10429 31089 ft 476 kts 109°
2026-04-26 14:18 30.94144 110.17703 31104 ft 476 kts 109°
2026-04-26 14:18 30.92060 110.25021 31119 ft 476 kts 109°
2026-04-26 14:19 30.89970 110.32343 31125 ft 477 kts 109°
2026-04-26 14:19 30.87877 110.39660 31122 ft 478 kts 108°
2026-04-26 14:20 30.85773 110.46947 31119 ft 479 kts 109°
2026-04-26 14:20 30.83655 110.54267 31121 ft 478 kts 109°
2026-04-26 14:21 30.81530 110.61592 31102 ft 478 kts 109°
2026-04-26 14:21 30.79414 110.68881 31078 ft 479 kts 110°
2026-04-26 14:22 30.77287 110.76182 31057 ft 479 kts 109°
2026-04-26 14:22 30.75143 110.83529 31051 ft 478 kts 109°
2026-04-26 14:23 30.73005 110.90832 31057 ft 480 kts 109°
2026-04-26 14:23 30.70856 110.98164 31072 ft 479 kts 109°
2026-04-26 14:24 30.68704 111.05484 31075 ft 479 kts 109°
2026-04-26 14:24 30.66556 111.12775 31057 ft 479 kts 109°
2026-04-26 14:25 30.64442 111.20082 31028 ft 480 kts 106°
2026-04-26 14:25 30.63253 111.27701 31009 ft 480 kts 93°
2026-04-26 14:26 30.63477 111.35381 30992 ft 480 kts 81°
2026-04-26 14:26 30.64545 111.42942 30989 ft 481 kts 79°
2026-04-26 14:27 30.65389 111.50611 30979 ft 483 kts 85°
2026-04-26 14:27 30.65796 111.58396 30972 ft 482 kts 85°
2026-04-26 14:28 30.66176 111.66133 30969 ft 482 kts 86°
2026-04-26 14:28 30.66573 111.73900 30967 ft 483 kts 86°
2026-04-26 14:29 30.66967 111.81661 30956 ft 482 kts 86°
2026-04-26 14:29 30.67359 111.89436 30950 ft 482 kts 86°
2026-04-26 14:30 30.67746 111.97173 30941 ft 482 kts 86°
2026-04-26 14:30 30.68264 112.04923 30941 ft 483 kts 84°
2026-04-26 14:31 30.68815 112.12663 30937 ft 484 kts 85°
2026-04-26 14:31 30.69349 112.20465 30937 ft 485 kts 85°
2026-04-26 14:32 30.69876 112.28231 30942 ft 485 kts 85°
2026-04-26 14:32 30.70394 112.36011 30946 ft 486 kts 85°
2026-04-26 14:33 30.70910 112.43833 30950 ft 487 kts 84°
2026-04-26 14:33 30.71420 112.51635 30951 ft 486 kts 84°
2026-04-26 14:34 30.71928 112.59477 30955 ft 487 kts 84°
2026-04-26 14:34 30.72429 112.67313 30958 ft 487 kts 85°
2026-04-26 14:35 30.72927 112.75106 30962 ft 487 kts 85°
2026-04-26 14:35 30.73419 112.82970 30964 ft 488 kts 85°
2026-04-26 14:36 30.73906 112.90781 30967 ft 487 kts 85°
2026-04-26 14:36 30.74391 112.98622 30967 ft 487 kts 85°
2026-04-26 14:37 30.74870 113.06469 30968 ft 488 kts 85°
2026-04-26 14:37 30.75331 113.14309 30969 ft 490 kts 86°
2026-04-26 14:38 30.75567 113.22221 30969 ft 489 kts 87°
2026-04-26 14:38 30.75762 113.30093 30969 ft 491 kts 88°
2026-04-26 14:39 30.75956 113.37974 30968 ft 492 kts 87°
2026-04-26 14:39 30.76153 113.45905 30969 ft 491 kts 87°
2026-04-26 14:40 30.76343 113.53851 30967 ft 493 kts 88°
2026-04-26 14:40 30.76530 113.61739 30968 ft 492 kts 88°
2026-04-26 14:41 30.76712 113.69721 30969 ft 493 kts 88°
2026-04-26 14:41 30.76888 113.77638 30971 ft 494 kts 88°
2026-04-26 14:42 30.77062 113.85635 30971 ft 495 kts 88°
2026-04-26 14:42 30.77229 113.93584 30972 ft 495 kts 88°
2026-04-26 14:43 30.77394 114.01577 30971 ft 496 kts 88°
2026-04-26 14:43 30.77700 114.09553 30974 ft 495 kts 86°
2026-04-26 14:44 30.78333 114.17548 30979 ft 496 kts 79°
2026-04-26 14:44 30.79874 114.25312 30982 ft 494 kts 70°
2026-04-26 14:45 30.82244 114.32729 30986 ft 491 kts 65°
2026-04-26 14:45 30.84466 114.40234 30979 ft 494 kts 76°
2026-04-26 14:45 30.84802 114.44179 30992 ft 496 kts 89°
2026-04-26 14:46 30.84444 114.48143 30996 ft 498 kts 102°
2026-04-26 14:46 30.83395 114.52004 30995 ft 497 kts 115°
2026-04-26 14:46 30.81763 114.55508 31007 ft 495 kts 123°
2026-04-26 14:47 30.78073 114.62244 30997 ft 495 kts 124°
2026-04-26 14:47 30.74449 114.68887 30991 ft 495 kts 124°
2026-04-26 14:48 30.70826 114.75651 30994 ft 495 kts 124°
2026-04-26 14:48 30.67209 114.82430 30992 ft 494 kts 124°
2026-04-26 14:49 30.63591 114.89211 30996 ft 494 kts 123°
2026-04-26 14:49 30.59980 114.95962 31005 ft 493 kts 123°
2026-04-26 14:50 30.56371 115.02703 30995 ft 494 kts 123°
2026-04-26 14:50 30.52741 115.09473 30991 ft 494 kts 123°
2026-04-26 14:51 30.49122 115.16211 30999 ft 494 kts 124°
2026-04-26 14:51 30.45249 115.22720 30992 ft 490 kts 134°
2026-04-26 14:52 30.40118 115.27760 30996 ft 480 kts 153°
2026-04-26 14:52 30.34150 115.30946 31007 ft 473 kts 164°
2026-04-26 14:53 30.28013 115.33592 31001 ft 472 kts 164°
2026-04-26 14:53 30.21842 115.36283 30998 ft 471 kts 164°
2026-04-26 14:54 30.15742 115.38972 31004 ft 469 kts 164°
2026-04-26 14:54 30.09623 115.41677 31002 ft 470 kts 163°
2026-04-26 14:55 30.03569 115.44352 31008 ft 467 kts 164°
2026-04-26 14:55 29.97470 115.47045 31000 ft 468 kts 163°
2026-04-26 14:56 29.91397 115.49722 31001 ft 468 kts 163°
2026-04-26 14:56 29.85300 115.52411 31000 ft 468 kts 164°
2026-04-26 14:57 29.79195 115.55095 31004 ft 470 kts 163°
2026-04-26 14:57 29.73109 115.57762 31013 ft 470 kts 164°
2026-04-26 14:58 29.66988 115.60443 31012 ft 471 kts 164°
2026-04-26 14:58 29.60858 115.63125 31018 ft 472 kts 164°
2026-04-26 14:59 29.54691 115.65824 31017 ft 472 kts 164°
2026-04-26 14:59 29.48556 115.68509 31016 ft 471 kts 165°
2026-04-26 15:00 29.42438 115.71183 31019 ft 472 kts 164°
2026-04-26 15:00 29.36278 115.73818 31028 ft 471 kts 167°
2026-04-26 15:01 29.29983 115.75779 31030 ft 466 kts 174°
2026-04-26 15:01 29.23625 115.77044 31033 ft 465 kts 176°
2026-04-26 15:02 29.17220 115.78252 31036 ft 465 kts 176°
2026-04-26 15:02 29.10851 115.79463 31035 ft 465 kts 176°
2026-04-26 15:03 29.04423 115.80687 31035 ft 466 kts 176°
2026-04-26 15:03 28.98061 115.81898 31033 ft 466 kts 176°
2026-04-26 15:04 28.91645 115.83118 31036 ft 465 kts 176°
2026-04-26 15:04 28.85271 115.84330 31037 ft 465 kts 176°
2026-04-26 15:05 28.78894 115.85540 31043 ft 464 kts 176°
2026-04-26 15:05 28.72516 115.86750 31046 ft 464 kts 176°
2026-04-26 15:06 28.66138 115.87959 31043 ft 464 kts 176°
2026-04-26 15:06 28.59771 115.89162 31040 ft 464 kts 176°
2026-04-26 15:07 28.50230 115.90970 31030 ft 464 kts 175°
2026-04-26 15:07 28.44033 115.93175 31025 ft 474 kts 159°
2026-04-26 15:08 28.38387 115.97199 31025 ft 483 kts 143°
2026-04-26 15:08 28.33484 116.02435 31024 ft 485 kts 138°
2026-04-26 15:09 28.28737 116.07822 31023 ft 485 kts 138°
2026-04-26 15:09 28.23935 116.13190 31025 ft 485 kts 138°
2026-04-26 15:10 28.19911 116.17645 31029 ft 484 kts 138°
2026-04-26 15:10 28.14288 116.23848 31031 ft 484 kts 139°
2026-04-26 15:11 28.09488 116.29135 31034 ft 484 kts 139°
2026-04-26 15:11 28.04659 116.34450 31035 ft 484 kts 139°
2026-04-26 15:12 27.99827 116.39764 31041 ft 484 kts 139°
2026-04-26 15:12 27.94980 116.45091 31042 ft 485 kts 139°
2026-04-26 15:13 27.90151 116.50384 31043 ft 484 kts 139°
2026-04-26 15:13 27.85316 116.55681 31046 ft 485 kts 139°
2026-04-26 15:14 27.80497 116.60953 31049 ft 485 kts 139°
2026-04-26 15:14 27.75650 116.66254 31053 ft 485 kts 139°
2026-04-26 15:15 27.70802 116.71544 31056 ft 483 kts 139°
2026-04-26 15:15 27.65987 116.76791 31063 ft 483 kts 139°
2026-04-26 15:16 27.61162 116.82045 31068 ft 484 kts 139°
2026-04-26 15:16 27.56322 116.87307 31084 ft 484 kts 139°
2026-04-26 15:17 27.52275 116.91703 31099 ft 485 kts 139°
2026-04-26 15:17 27.46619 116.97880 31125 ft 484 kts 139°
2026-04-26 15:18 27.41802 117.03153 31128 ft 484 kts 139°
2026-04-26 15:18 27.36990 117.08412 31122 ft 484 kts 139°
2026-04-26 15:19 27.32174 117.13669 31121 ft 483 kts 139°
2026-04-26 15:19 27.27342 117.18935 31128 ft 483 kts 139°
2026-04-26 15:20 27.22530 117.24195 31144 ft 483 kts 139°
2026-04-26 15:20 27.17703 117.29469 31144 ft 483 kts 139°
2026-04-26 15:21 27.12889 117.34722 31136 ft 483 kts 139°
2026-04-26 15:21 27.08070 117.39977 31137 ft 483 kts 139°
2026-04-26 15:22 27.03281 117.45192 31148 ft 483 kts 139°
2026-04-26 15:22 26.98458 117.50437 31168 ft 483 kts 139°
2026-04-26 15:23 26.93646 117.55691 31157 ft 483 kts 139°
2026-04-26 15:23 26.88834 117.60945 31143 ft 483 kts 139°
2026-04-26 15:24 26.84049 117.66161 31128 ft 483 kts 139°
2026-04-26 15:24 26.79235 117.71404 31127 ft 483 kts 139°
2026-04-26 15:25 26.75219 117.75775 31130 ft 483 kts 139°
2026-04-26 15:25 26.69604 117.81870 31128 ft 483 kts 139°
2026-04-26 15:26 26.64766 117.87122 31122 ft 483 kts 139°
2026-04-26 15:26 26.59966 117.92328 31121 ft 483 kts 139°
2026-04-26 15:27 26.54670 117.96731 31110 ft 471 kts 163°
2026-04-26 15:27 26.51574 117.97767 31120 ft 463 kts 174°
2026-04-26 15:27 26.48393 117.98153 31123 ft 455 kts 184°
2026-04-26 15:28 26.42079 117.97804 31128 ft 452 kts 189°
2026-04-26 15:28 26.35819 117.97348 30834 ft 451 kts 189°
2026-04-26 15:29 26.32681 117.97132 30574 ft 448 kts 188°
2026-04-26 15:29 26.29582 117.96925 30312 ft 445 kts 189°
2026-04-26 15:29 26.23433 117.96526 29604 ft 441 kts 188°
2026-04-26 15:30 26.17285 117.96129 28418 ft 441 kts 188°
2026-04-26 15:30 26.14220 117.95930 27718 ft 442 kts 188°
2026-04-26 15:30 26.11159 117.95733 26982 ft 443 kts 187°
2026-04-26 15:31 26.08091 117.95537 26436 ft 439 kts 187°
2026-04-26 15:31 26.02053 117.95155 25406 ft 431 kts 187°
2026-04-26 15:31 25.99048 117.94965 24881 ft 428 kts 187°
2026-04-26 15:32 25.94147 117.94654 24019 ft 423 kts 187°
2026-04-26 15:32 25.90245 117.94406 23335 ft 420 kts 187°
2026-04-26 15:32 25.87311 117.94219 22809 ft 418 kts 187°
2026-04-26 15:33 25.84431 117.94037 22289 ft 415 kts 186°
2026-04-26 15:33 25.81558 117.93855 21772 ft 413 kts 186°
2026-04-26 15:33 25.78697 117.93674 21262 ft 410 kts 186°
2026-04-26 15:33 25.75855 117.93494 20757 ft 408 kts 186°
2026-04-26 15:34 25.73011 117.93314 20254 ft 405 kts 186°
2026-04-26 15:34 25.70229 117.93139 19750 ft 403 kts 186°
2026-04-26 15:34 25.67450 117.92963 19245 ft 400 kts 186°
2026-04-26 15:34 25.64674 117.92786 18733 ft 398 kts 186°
2026-04-26 15:35 25.61905 117.92610 18222 ft 395 kts 186°
2026-04-26 15:35 25.59162 117.92437 17708 ft 393 kts 185°
2026-04-26 15:35 25.56429 117.92268 17205 ft 391 kts 185°
2026-04-26 15:35 25.53732 117.92226 16701 ft 390 kts 180°
2026-04-26 15:36 25.51005 117.92390 16195 ft 389 kts 177°
2026-04-26 15:36 25.48332 117.92647 15691 ft 386 kts 176°
2026-04-26 15:36 25.45660 117.92912 15184 ft 384 kts 176°
2026-04-26 15:36 25.43014 117.93175 14679 ft 382 kts 176°
2026-04-26 15:37 25.40368 117.93438 14167 ft 380 kts 176°
2026-04-26 15:37 25.37743 117.93696 13657 ft 378 kts 176°
2026-04-26 15:37 25.35132 117.93951 13152 ft 376 kts 176°
2026-04-26 15:37 25.32537 117.94204 12642 ft 374 kts 176°
2026-04-26 15:38 25.29956 117.94455 12142 ft 371 kts 176°
2026-04-26 15:38 25.27390 117.94707 11647 ft 369 kts 176°
2026-04-26 15:38 25.24829 117.94959 11154 ft 366 kts 176°
2026-04-26 15:38 25.22317 117.95208 10742 ft 361 kts 176°
2026-04-26 15:39 25.19827 117.95456 10519 ft 349 kts 176°
2026-04-26 15:39 25.17469 117.95690 10369 ft 336 kts 176°
2026-04-26 15:39 25.15150 117.95914 10088 ft 329 kts 176°
2026-04-26 15:39 25.13640 117.96057 9913 ft 323 kts 176°
2026-04-26 15:40 25.10730 117.96334 9712 ft 308 kts 176°
2026-04-26 15:40 25.08616 117.96536 9586 ft 300 kts 176°
2026-04-26 15:40 25.06534 117.96732 9459 ft 300 kts 176°
2026-04-26 15:40 25.04453 117.96930 9331 ft 299 kts 176°
2026-04-26 15:41 25.02377 117.97128 9208 ft 298 kts 176°
2026-04-26 15:41 25.00310 117.97325 9082 ft 298 kts 176°
2026-04-26 15:41 24.98234 117.97523 8960 ft 297 kts 176°
2026-04-26 15:41 24.96161 117.97720 8841 ft 296 kts 175°
2026-04-26 15:42 24.94110 117.97916 8722 ft 295 kts 175°
2026-04-26 15:42 24.92080 117.98111 8603 ft 295 kts 175°
2026-04-26 15:42 24.90020 117.98308 8482 ft 294 kts 175°
2026-04-26 15:42 24.87963 117.98505 8362 ft 294 kts 175°
2026-04-26 15:43 24.85933 117.98698 8244 ft 293 kts 175°
2026-04-26 15:43 24.83900 117.98892 8124 ft 292 kts 176°
2026-04-26 15:43 24.79857 117.99277 7887 ft 291 kts 176°
2026-04-26 15:44 24.77832 117.99470 7763 ft 291 kts 175°
2026-04-26 15:44 24.73786 117.99854 7526 ft 290 kts 175°
2026-04-26 15:44 24.71774 118.00045 7410 ft 289 kts 175°
2026-04-26 15:45 24.67782 118.00425 7164 ft 288 kts 175°
2026-04-26 15:45 24.65785 118.00614 7016 ft 287 kts 175°
2026-04-26 15:46 24.61815 118.00992 6642 ft 285 kts 175°
2026-04-26 15:46 24.59826 118.01181 6359 ft 284 kts 174°
2026-04-26 15:46 24.57860 118.01346 6030 ft 283 kts 180°
2026-04-26 15:46 24.56568 118.01152 5785 ft 281 kts 201°
2026-04-26 15:47 24.54590 117.99419 5441 ft 271 kts 231°
2026-04-26 15:47 24.52195 117.96317 4968 ft 260 kts 229°
2026-04-26 15:47 24.51012 117.94852 4738 ft 254 kts 229°
2026-04-26 15:48 24.49833 117.93409 4512 ft 249 kts 228°
2026-04-26 15:48 24.48698 117.92027 4297 ft 244 kts 228°
2026-04-26 15:48 24.47556 117.90653 4106 ft 237 kts 224°
2026-04-26 15:48 24.46186 117.89747 3927 ft 230 kts 188°
2026-04-26 15:49 24.44643 117.89970 3682 ft 228 kts 149°
2026-04-26 15:49 24.43412 117.91057 3445 ft 227 kts 137°
2026-04-26 15:49 24.42259 117.92246 3195 ft 224 kts 125°
2026-04-26 15:49 24.41709 117.93788 3016 ft 215 kts 91°
2026-04-26 15:50 24.42022 117.95300 3004 ft 203 kts 63°
2026-04-26 15:50 24.42793 117.96611 3021 ft 202 kts 53°
2026-04-26 15:50 24.43644 117.97755 3100 ft 186 kts 51°
2026-04-26 15:50 24.44450 117.98819 2878 ft 178 kts 52°
2026-04-26 15:51 24.45218 117.99863 2652 ft 169 kts 52°
2026-04-26 15:51 24.45928 118.00848 2417 ft 157 kts 53°
2026-04-26 15:51 24.46567 118.01747 2189 ft 142 kts 53°
2026-04-26 15:51 24.47158 118.02583 2012 ft 138 kts 52°
2026-04-26 15:52 24.47745 118.03410 1849 ft 138 kts 52°
2026-04-26 15:52 24.48336 118.04243 1685 ft 138 kts 52°
2026-04-26 15:52 24.48926 118.05071 1516 ft 137 kts 52°
2026-04-26 15:52 24.49324 118.05631 1396 ft 137 kts 52°
2026-04-26 15:53 24.50107 118.06729 1158 ft 136 kts 52°
2026-04-26 15:53 24.50687 118.07543 976 ft 136 kts 52°
2026-04-26 15:53 24.51262 118.08351 802 ft 135 kts 52°
2026-04-26 15:53 24.51846 118.09168 620 ft 134 kts 51°
2026-04-26 15:54 24.52426 118.09977 447 ft 134 kts 52°
2026-04-26 15:54 24.52990 118.10775 275 ft 134 kts 51°
2026-04-26 15:54 24.53565 118.11578 97 ft 133 kts 51°
2026-04-26 15:54 24.54086 118.12302 72 ft 101 kts 52°
2026-04-26 15:55 24.54409 118.12756 72 ft 46 kts 52°
2026-04-26 15:55 24.54500 118.12930 72 ft 21 kts 71°
2026-04-26 15:55 24.54526 118.13048 72 ft 11 kts 79°
2026-04-26 15:55 24.54541 118.13135 72 ft 12 kts 81°
2026-04-26 15:56 24.54557 118.13230 72 ft 12 kts 77°
2026-04-26 15:56 24.54601 118.13317 72 ft 13 kts 53°
2026-04-26 15:56 24.54660 118.13400 72 ft 14 kts 52°
2026-04-26 15:56 24.54722 118.13487 72 ft 14 kts 52°
2026-04-26 15:57 24.54786 118.13576 72 ft 15 kts 52°
2026-04-26 15:57 24.54853 118.13668 72 ft 15 kts 51°
2026-04-26 15:57 24.54865 118.13731 71 ft 8 kts 116°
2026-04-26 15:57 24.54838 118.13766 71 ft 9 kts 138°
2026-04-26 15:58 24.54763 118.13832 71 ft 11 kts 142°
2026-04-26 15:58 24.54718 118.13882 71 ft 7 kts 100°
2026-04-26 15:58 24.54745 118.13933 71 ft 6 kts 51°
2026-04-26 15:58 24.54765 118.13960 71 ft 2 kts 51°
2026-04-26 15:59 24.54768 118.13964 71 ft 0 kts 51°